Weather History for Dubai International Airport, UAE

Change the Weather History Date:

Saturday, May 11, 2013

  Actual Average Record
Temperature  
Mean Temperature 83 °F -  
Max Temperature 92 °F 98 °F - ()
Min Temperature 74 °F 77 °F - ()
Cooling Degree Days 18    
Growing Degree Days 33 (Base 50)    
Moisture  
Dew Point 69 °F    
Average Humidity 62    
Maximum Humidity 83    
Minimum Humidity 30    
Precipitation  
Precipitation 0.00 in 0.00 in - ()
Sea Level Pressure  
Sea Level Pressure 29.72 in    
Wind  
Wind Speed 7 mph ()    
Max Wind Speed 12 mph    
Max Gust Speed -    
Visibility 5.1 miles    
Events      
T = Trace of Precipitation, MM = Missing Value Source: Averaged Metar Reports

Daily Weather History Graph

Daily Weather History Graph

Search for Another Location

Airport:

Trip Planner

Search our weather history database for the weather conditions in past years. The results will help you decide how hot, cold, wet, or windy it might be!

Date:

Astronomy

May. 11, 2013 Rise Set
Actual Time 5:35 AM GST 6:54 PM GST
Civil Twilight 5:11 AM GST 7:18 PM GST
Nautical Twilight 4:42 AM GST 7:48 PM GST
Astronomical Twilight 4:11 AM GST 8:18 PM GST
Moon 6:28 AM GST (5/11) 8:11 PM GST (5/11)
Length of Visible Light 14h 07m
Length of Day
13h 18m
New Moon, 2% of the Moon is Illuminated
May 11
New Moon
May 18
First Quarter
May 25
Full
May 31
Last Quarter
Jun 8
New

Hourly Weather History & Observations

Time (GST) Temp. Heat Index Dew Point Humidity Pressure Visibility Wind Dir Wind Speed Gust Speed Precip Events Conditions
12:00 AM 80.6 °F 84.6 °F 71.6 °F 74% 29.77 in - SW 5.8 mph - N/A   Clear
1:00 AM 80 °F - 70 °F 65% 29.76 in 6 mi South 6.9 mph - -  
1:00 AM 78.8 °F - 69.8 °F 74% 29.74 in - South 6.9 mph - N/A   Clear
2:00 AM 78.8 °F - 69.8 °F 74% 29.74 in - SSW 4.6 mph - N/A   Clear
3:00 AM 77.0 °F - 69.8 °F 78% 29.74 in 5.0 mi South 5.8 mph - N/A   Unknown
4:00 AM 75 °F - 69 °F 77% 29.75 in 5 mi SSE 8.1 mph - -   Haze
4:00 AM 75.2 °F - 69.8 °F 83% 29.74 in 5.0 mi SSE 8.1 mph - N/A   Unknown
5:00 AM 75.2 °F - 68.0 °F 78% 29.74 in 5.0 mi SSE 5.8 mph - N/A   Unknown
6:00 AM 75.2 °F - 68.0 °F 78% 29.74 in 3.1 mi South 5.8 mph - N/A   Haze
7:00 AM 75 °F - 68 °F 74% 29.77 in 4 mi South 8.1 mph - -   Haze
7:00 AM 75.2 °F - 68.0 °F 78% 29.74 in 3.7 mi South 8.1 mph - N/A   Unknown
8:00 AM 78.8 °F - 68.0 °F 69% 29.77 in 5.0 mi SSW 10.4 mph - N/A   Unknown
9:00 AM 82.4 °F 85.4 °F 68.0 °F 62% 29.77 in - South 8.1 mph - N/A   Clear
10:00 AM 86 °F - 65 °F 40% 29.78 in 6 mi SW 6.9 mph - -  
10:00 AM 86.0 °F 87.3 °F 64.4 °F 48% 29.77 in - SW 6.9 mph - N/A   Clear
11:00 AM 91.4 °F 92.1 °F 62.6 °F 38% 29.77 in - Variable 5.8 mph - N/A   Clear
12:00 PM 91.4 °F 92.1 °F 62.6 °F 38% 29.74 in - West 8.1 mph - N/A   Clear
1:00 PM 90 °F - 63 °F 30% 29.73 in 6 mi West 11.5 mph - -  
1:00 PM 89.6 °F 90.1 °F 62.6 °F 40% 29.71 in - West 11.5 mph - N/A   Clear
2:00 PM 91.4 °F 93.2 °F 64.4 °F 41% 29.68 in - West 11.5 mph - N/A   Clear
3:00 PM 89.6 °F 94.7 °F 69.8 °F 52% 29.65 in - NW 10.4 mph - N/A   Clear
4:00 PM 88 °F - 70 °F 46% 29.67 in 6 mi WNW 11.5 mph - -  
4:00 PM 87.8 °F 92.6 °F 69.8 °F 55% 29.65 in - WNW 11.5 mph - N/A   Clear
5:00 PM 87.8 °F 92.6 °F 69.8 °F 55% 29.65 in - WNW 10.4 mph - N/A   Clear
6:00 PM 86.0 °F 90.4 °F 69.8 °F 58% 29.65 in - NW 9.2 mph - N/A   Clear
7:00 PM 85 °F - 73 °F 59% 29.67 in 6 mi WNW 10.4 mph - -  
7:00 PM 84.2 °F 90.9 °F 73.4 °F 70% 29.65 in - WNW 10.4 mph - N/A   Clear
8:00 PM 84.2 °F 90.9 °F 73.4 °F 70% 29.68 in - West 6.9 mph - N/A   Clear
9:00 PM 84.2 °F 89.6 °F 71.6 °F 66% 29.68 in - WSW 6.9 mph - N/A   Clear
10:00 PM 83 °F - 73 °F 65% 29.71 in 6 mi SSW 5.8 mph - -  
10:00 PM 82.4 °F 88.2 °F 73.4 °F 74% 29.68 in - SSW 5.8 mph - N/A   Clear
11:00 PM 82.4 °F 88.2 °F 73.4 °F 74% 29.71 in 5.0 mi South 6.9 mph - N/A   Unknown